Content
SEND FEEDBACK

Daily
Averages
Monthly
Summary
United States of America

GOSHEN, NEW HAMPSHIRE


Home > North America > United States > New Hampshire
Elevation: 1496 feet     Latitude: 43 20N     Longitude: 072 05W

WEATHER
 
SELECT A DAY
Number of Records: 215,664;   Date Range: 1/1/95 - 8/28/14
 
SHARE

PRINT THIS DATA

[ ← Previous Day ]
WEATHER ALMANAC - FEBRUARY 13, 2013
[ Next Day → ]
[ °C ]   °F
Weather ElementAverageHighLow
Temperature28.7 °F37 °F (12:53 pm)21 °F (8:53 pm)
Dewpoint17.9 °F21 °F (5:53 pm)15.1 °F (8:53 pm)
Humidity65.6 %82 % (6:53 am)44 % (1:53 pm)
Barometer29.80 in29.85 in (4:53 am)29.75 in (6:53 pm)
Wind Speed1.9 mph6.9 mph (3:53 pm)
Weather ElementAverage
Visibility10 mi
Wind DirectionENE (72.4 °)

Weather ElementTotal
Precipitation---
Heating Degree Days36 (Base 65)
Averaged from 25 records on February 13, 2013
WEATHER CONDITIONS BREAKOUT
WIND DIRECTION BREAKOUT
WEATHER BY HOUR - FEBRUARY 13, 2013
[ °C ]   °F
Local TimeTemperatureDewpointHumidityBarometerVisibilityWind DirectionWind SpeedGust SpeedPrecipitationEventsConditions
1:53 AM30.0 °F19.9 °F66 %29.82 in10.0 miCalmScattered Clouds
2:53 AM25.0 °F18.0 °F75 %29.83 in10.0 miSSE (150°)3.5 mphClear
3:53 AM23.0 °F16.0 °F74 %29.83 in10.0 miCalmClear
4:53 AM23.0 °F17.1 °F78 %29.85 in10.0 miCalmMostly Cloudy
5:53 AM23.0 °F16.0 °F74 %29.83 in10.0 miCalmClear
6:53 AM21.9 °F17.1 °F82 %29.84 in10.0 miNNE (30°)5.8 mphClear
7:53 AM27.0 °F18.0 °F69 %29.85 in10.0 miCalmOvercast
8:27 AM24.8 °F17.6 °F74 %29.82 in10.0 miCalmMostly Cloudy
8:38 AM26.6 °F17.6 °F69 %29.82 in10.0 miCalmPartly Cloudy
8:53 AM26.1 °F19.0 °F75 %29.85 in10.0 miCalmScattered Clouds
9:53 AM34.0 °F19.9 °F56 %29.84 in10.0 miNNE (20°)3.5 mphOvercast
10:53 AM36.0 °F19.9 °F52 %29.82 in10.0 miNW (320°)5.8 mphOvercast
11:53 AM36.0 °F18.0 °F48 %29.80 in10.0 miCalmOvercast
12:53 PM37.0 °F19.0 °F48 %29.79 in10.0 miNNW (340°)4.6 mphOvercast
1:53 PM37.0 °F17.1 °F44 %29.78 in10.0 miSW (220°)4.6 mphOvercast
2:53 PM37.0 °F18.0 °F46 %29.77 in10.0 miWest (260°)5.8 mphMostly Cloudy
3:53 PM37.0 °F17.1 °F44 %29.76 in10.0 miWSW (240°)6.9 mphOvercast
4:53 PM36.0 °F18.0 °F48 %29.77 in10.0 miSW (230°)5.8 mphOvercast
5:53 PM33.1 °F21.0 °F61 %29.76 in10.0 miCalmOvercast
6:53 PM28.0 °F19.9 °F72 %29.75 in10.0 miCalmPartly Cloudy
7:53 PM23.0 °F17.1 °F78 %29.77 in10.0 miCalmPartly Cloudy
8:53 PM21.0 °F15.1 °F78 %29.77 in10.0 miCalmClear
9:53 PM21.9 °F16.0 °F78 %29.77 in10.0 miCalmClear
10:53 PM24.1 °F18.0 °F77 %29.76 in10.0 miCalmClear
11:53 PM25.0 °F18.0 °F75 %29.75 in10.0 miCalmClear
Hourly data recorded from KLEB, located miles away from Goshen, New Hampshire







STORIES FROM OUR PARTNERS